| time (UTC) | temp F | wind direction | speed knots | gust knots | rain 1hr in | rain 24hr in | rain mn in | humidity % | barometer mb |
| 20260506211456 | 42 | 0 | 0.0 | 1.7 | 0.00 | 0.00 | 0.00 | 86 | 1015.6 |
| 20260506210952 | 42 | 0 | 0.0 | 1.7 | 0.00 | 0.00 | 0.00 | 86 | 1015.6 |
| 20260506210453 | 42 | 0 | 0.0 | 1.7 | 0.00 | 0.00 | 0.00 | 85 | 1015.6 |
| 20260506205954 | 42 | 0 | 0.0 | 2.6 | 0.00 | 0.00 | 0.00 | 85 | 1015.6 |
| 20260506205454 | 43 | 110 | 0.0 | 2.6 | 0.00 | 0.00 | 0.00 | 85 | 1015.5 |
| 20260506204955 | 43 | 0 | 0.0 | 2.6 | 0.00 | 0.00 | 0.00 | 84 | 1015.5 |
| 20260506204454 | 43 | 0 | 0.0 | 2.6 | 0.00 | 0.00 | 0.00 | 84 | 1015.5 |
| 20260506203955 | 43 | 0 | 0.0 | 2.6 | 0.00 | 0.00 | 0.00 | 83 | 1015.4 |
| 20260506203455 | 44 | 94 | 0.9 | 2.6 | 0.00 | 0.00 | 0.00 | 83 | 1015.4 |
| 20260506202951 | 44 | 0 | 0.9 | 4.3 | 0.00 | 0.00 | 0.00 | 82 | 1015.4 |
| 20260506202450 | 44 | 0 | 0.9 | 4.3 | 0.00 | 0.00 | 0.00 | 82 | 1015.3 |
| 20260506201951 | 44 | 106 | 0.9 | 4.3 | 0.00 | 0.00 | 0.00 | 81 | 1015.3 |
| 20260506201451 | 44 | 0 | 0.0 | 2.6 | 0.00 | 0.00 | 0.00 | 80 | 1015.3 |
| 20260506200952 | 45 | 0 | 0.9 | 4.3 | 0.00 | 0.00 | 0.00 | 79 | 1015.3 |
| 20260506200450 | 45 | 0 | 0.9 | 4.3 | 0.00 | 0.00 | 0.00 | 79 | 1015.1 |
| 20260506195949 | 45 | 117 | 0.0 | 2.6 | 0.00 | 0.00 | 0.00 | 78 | 1015.1 |
| 20260506195449 | 46 | 0 | 0.0 | 2.6 | 0.00 | 0.00 | 0.00 | 78 | 1015.1 |
| 20260506194949 | 46 | 0 | 0.0 | 3.5 | 0.00 | 0.00 | 0.00 | 77 | 1015.1 |
| 20260506194449 | 46 | 0 | 0.0 | 3.5 | 0.00 | 0.00 | 0.00 | 77 | 1015.1 |
| 20260506193949 | 46 | 0 | 0.9 | 3.5 | 0.00 | 0.00 | 0.00 | 77 | 1015.1 |
| 20260506193449 | 46 | 0 | 0.9 | 3.5 | 0.00 | 0.00 | 0.00 | 77 | 1015.1 |
| 20260506192947 | 47 | 74 | 0.9 | 3.5 | 0.00 | 0.00 | 0.00 | 77 | 1015.0 |
| 20260506192447 | 47 | 0 | 0.9 | 3.5 | 0.00 | 0.00 | 0.00 | 77 | 1015.0 |
| 20260506191946 | 47 | 0 | 0.9 | 4.3 | 0.00 | 0.00 | 0.00 | 76 | 1015.0 |
| 20260506191447 | 47 | 340 | 0.9 | 4.3 | 0.00 | 0.00 | 0.00 | 76 | 1015.0 |
| 20260506190948 | 47 | 158 | 0.9 | 3.5 | 0.00 | 0.00 | 0.00 | 76 | 1015.0 |
| 20260506190447 | 47 | 68 | 0.9 | 3.5 | 0.00 | 0.00 | 0.00 | 76 | 1015.0 |
| 20260506185943 | 47 | 69 | 0.9 | 3.5 | 0.00 | 0.00 | 0.00 | 75 | 1015.0 |
| 20260506185442 | 47 | 230 | 0.9 | 2.6 | 0.00 | 0.00 | 0.00 | 75 | 1014.9 |
| 20260506184941 | 47 | 298 | 0.9 | 4.3 | 0.00 | 0.00 | 0.00 | 74 | 1014.9 |
| 20260506184439 | 47 | 39 | 0.9 | 4.3 | 0.00 | 0.00 | 0.00 | 74 | 1014.9 |
| 20260506183939 | 47 | 71 | 0.9 | 5.2 | 0.00 | 0.00 | 0.00 | 74 | 1014.9 |
| 20260506183441 | 47 | 192 | 0.9 | 5.2 | 0.00 | 0.00 | 0.00 | 74 | 1014.9 |
| 20260506182937 | 48 | 83 | 1.7 | 4.3 | 0.00 | 0.00 | 0.00 | 74 | 1014.9 |
| 20260506182438 | 48 | 193 | 1.7 | 7.0 | 0.00 | 0.00 | 0.00 | 74 | 1014.9 |
| 20260506181938 | 48 | 237 | 1.7 | 7.0 | 0.00 | 0.00 | 0.00 | 74 | 1014.9 |
| 20260506181439 | 48 | 74 | 0.9 | 4.3 | 0.00 | 0.00 | 0.00 | 73 | 1014.8 |
| 20260506180938 | 48 | 0 | 0.9 | 4.3 | 0.00 | 0.00 | 0.00 | 73 | 1014.8 |
| 20260506180438 | 48 | 10 | 0.9 | 4.3 | 0.00 | 0.00 | 0.00 | 73 | 1014.8 |
| 20260506175938 | 48 | 310 | 0.9 | 5.2 | 0.00 | 0.00 | 0.00 | 73 | 1014.8 |
| 20260506175436 | 49 | 12 | 1.7 | 5.2 | 0.00 | 0.00 | 0.00 | 72 | 1014.8 |
| 20260506174935 | 49 | 149 | 0.9 | 4.3 | 0.00 | 0.00 | 0.00 | 72 | 1014.7 |
| 20260506174435 | 49 | 79 | 0.9 | 4.3 | 0.00 | 0.00 | 0.00 | 72 | 1014.7 |
| 20260506173935 | 49 | 269 | 0.9 | 4.3 | 0.00 | 0.00 | 0.00 | 72 | 1014.7 |
| 20260506173434 | 49 | 71 | 0.9 | 4.3 | 0.00 | 0.00 | 0.00 | 72 | 1014.7 |
| 20260506172934 | 49 | 0 | 0.9 | 3.5 | 0.00 | 0.00 | 0.00 | 71 | 1014.7 |
| 20260506172434 | 49 | 0 | 0.9 | 4.3 | 0.00 | 0.00 | 0.00 | 71 | 1014.6 |
| 20260506171934 | 49 | 0 | 0.9 | 4.3 | 0.00 | 0.00 | 0.00 | 71 | 1014.6 |
| 20260506171433 | 49 | 23 | 1.7 | 4.3 | 0.00 | 0.00 | 0.00 | 71 | 1014.6 |
| 20260506170933 | 49 | 245 | 1.7 | 5.2 | 0.00 | 0.00 | 0.00 | 71 | 1014.6 |
| 20260506170433 | 49 | 65 | 1.7 | 5.2 | 0.00 | 0.00 | 0.00 | 70 | 1014.6 |
| 20260506165932 | 50 | 337 | 1.7 | 5.2 | 0.00 | 0.00 | 0.00 | 70 | 1014.5 |
| 20260506165431 | 50 | 349 | 1.7 | 5.2 | 0.00 | 0.00 | 0.00 | 70 | 1014.5 |
| 20260506164928 | 50 | 25 | 1.7 | 4.3 | 0.00 | 0.00 | 0.00 | 71 | 1014.5 |
| 20260506164428 | 50 | 41 | 1.7 | 3.5 | 0.00 | 0.00 | 0.00 | 71 | 1014.5 |
| 20260506163925 | 50 | 149 | 1.7 | 4.3 | 0.00 | 0.00 | 0.00 | 70 | 1014.6 |
| 20260506163425 | 50 | 291 | 1.7 | 4.3 | 0.00 | 0.00 | 0.00 | 69 | 1014.5 |
| 20260506162926 | 50 | 60 | 1.7 | 6.1 | 0.00 | 0.00 | 0.00 | 68 | 1014.5 |
| 20260506162426 | 50 | 60 | 1.7 | 6.1 | 0.00 | 0.00 | 0.00 | 68 | 1014.5 |
| 20260506161925 | 51 | 349 | 0.9 | 4.3 | 0.00 | 0.00 | 0.00 | 68 | 1014.5 |
| 20260506161425 | 51 | 129 | 1.7 | 4.3 | 0.00 | 0.00 | 0.00 | 68 | 1014.5 |
| 20260506160925 | 50 | 83 | 1.7 | 5.2 | 0.00 | 0.00 | 0.00 | 68 | 1014.5 |
| 20260506160424 | 50 | 33 | 1.7 | 7.0 | 0.00 | 0.00 | 0.00 | 68 | 1014.5 |
| 20260506155923 | 50 | 4 | 1.7 | 7.0 | 0.00 | 0.00 | 0.00 | 67 | 1014.5 |
| 20260506155424 | 50 | 49 | 1.7 | 6.1 | 0.00 | 0.00 | 0.00 | 69 | 1014.5 |
| 20260506154920 | 50 | 167 | 1.7 | 6.1 | 0.00 | 0.00 | 0.00 | 68 | 1014.5 |
| 20260506154417 | 50 | 94 | 1.7 | 5.2 | 0.00 | 0.00 | 0.00 | 68 | 1014.5 |
| 20260506153917 | 50 | 202 | 1.7 | 5.2 | 0.00 | 0.00 | 0.00 | 68 | 1014.4 |
| 20260506153414 | 50 | 102 | 2.6 | 5.2 | 0.00 | 0.00 | 0.00 | 69 | 1014.5 |
| 20260506152914 | 50 | 87 | 1.7 | 6.1 | 0.00 | 0.00 | 0.00 | 68 | 1014.5 |
| 20260506152414 | 50 | 57 | 1.7 | 6.1 | 0.00 | 0.00 | 0.00 | 69 | 1014.5 |
| 20260506151914 | 50 | 149 | 1.7 | 5.2 | 0.00 | 0.00 | 0.00 | 69 | 1014.5 |
| 20260506151414 | 50 | 14 | 2.6 | 5.2 | 0.00 | 0.00 | 0.00 | 68 | 1014.6 |
| 20260506150914 | 50 | 28 | 2.6 | 6.1 | 0.00 | 0.00 | 0.00 | 69 | 1014.6 |
| 20260506150413 | 50 | 29 | 2.6 | 6.1 | 0.00 | 0.00 | 0.00 | 70 | 1014.6 |
| 20260506145913 | 51 | 62 | 2.6 | 6.1 | 0.00 | 0.00 | 0.00 | 70 | 1014.7 |
| 20260506145413 | 51 | 209 | 1.7 | 5.2 | 0.00 | 0.00 | 0.00 | 69 | 1014.7 |
| 20260506144916 | 51 | 227 | 1.7 | 7.0 | 0.00 | 0.00 | 0.00 | 69 | 1014.6 |
| 20260506144411 | 51 | 67 | 1.7 | 7.0 | 0.00 | 0.00 | 0.00 | 67 | 1014.6 |
| 20260506143911 | 51 | 205 | 1.7 | 6.1 | 0.00 | 0.00 | 0.00 | 66 | 1014.6 |
| 20260506143410 | 51 | 49 | 1.7 | 6.1 | 0.00 | 0.00 | 0.00 | 67 | 1014.7 |
| 20260506142911 | 51 | 0 | 1.7 | 6.1 | 0.00 | 0.00 | 0.00 | 67 | 1014.6 |
| 20260506142411 | 51 | 119 | 1.7 | 5.2 | 0.00 | 0.00 | 0.00 | 66 | 1014.6 |
| 20260506141911 | 52 | 341 | 1.7 | 5.2 | 0.00 | 0.00 | 0.00 | 65 | 1014.6 |
| 20260506141411 | 52 | 324 | 1.7 | 6.1 | 0.00 | 0.00 | 0.00 | 65 | 1014.6 |
| 20260506140911 | 52 | 326 | 1.7 | 6.1 | 0.00 | 0.00 | 0.00 | 65 | 1014.6 |
| 20260506140410 | 51 | 110 | 1.7 | 5.2 | 0.00 | 0.00 | 0.00 | 65 | 1014.6 |
| 20260506135909 | 51 | 114 | 1.7 | 7.8 | 0.00 | 0.00 | 0.00 | 65 | 1014.6 |
| 20260506135410 | 51 | 351 | 2.6 | 7.8 | 0.00 | 0.00 | 0.00 | 66 | 1014.7 |
| 20260506134908 | 51 | 28 | 2.6 | 7.8 | 0.00 | 0.00 | 0.00 | 65 | 1014.6 |
| 20260506134408 | 51 | 98 | 2.6 | 7.0 | 0.00 | 0.00 | 0.00 | 66 | 1014.7 |
| 20260506133908 | 51 | 15 | 2.6 | 7.8 | 0.00 | 0.00 | 0.00 | 65 | 1014.7 |
| 20260506133408 | 52 | 68 | 2.6 | 7.8 | 0.00 | 0.00 | 0.00 | 66 | 1014.6 |
| 20260506132909 | 52 | 15 | 1.7 | 7.8 | 0.00 | 0.00 | 0.00 | 66 | 1014.7 |
| 20260506132409 | 52 | 118 | 1.7 | 6.1 | 0.00 | 0.00 | 0.00 | 65 | 1014.7 |
| 20260506131908 | 52 | 245 | 1.7 | 6.1 | 0.00 | 0.00 | 0.00 | 64 | 1014.7 |
| 20260506130627 | 53 | 29 | 2.6 | 7.0 | 0.00 | 0.00 | 0.00 | 64 | 1014.7 |
| 20260506125905 | 53 | 37 | 2.6 | 7.8 | 0.00 | 0.00 | 0.00 | 65 | 1014.6 |
| 20260506124906 | 53 | 24 | 2.6 | 5.2 | 0.00 | 0.00 | 0.00 | 64 | 1014.5 |
| 20260506123905 | 51 | 352 | 2.6 | 7.0 | 0.00 | 0.00 | 0.00 | 67 | 1014.6 |
| 20260506123406 | 51 | 16 | 2.6 | 7.0 | 0.00 | 0.00 | 0.00 | 69 | 1014.7 |
| 20260506122905 | 51 | 19 | 2.6 | 7.0 | 0.00 | 0.00 | 0.00 | 68 | 1014.7 |
| 20260506122406 | 51 | 4 | 2.6 | 7.0 | 0.00 | 0.00 | 0.00 | 69 | 1014.7 |
| 20260506121906 | 52 | 339 | 1.7 | 7.0 | 0.00 | 0.00 | 0.00 | 66 | 1014.6 |
| 20260506121405 | 52 | 79 | 1.7 | 8.7 | 0.00 | 0.00 | 0.00 | 63 | 1014.6 |
| 20260506120903 | 51 | 353 | 2.6 | 8.7 | 0.00 | 0.00 | 0.00 | 62 | 1014.6 |
| 20260506120408 | 52 | 22 | 2.6 | 7.8 | 0.00 | 0.00 | 0.00 | 62 | 1014.7 |
| 20260506115908 | 52 | 70 | 2.6 | 7.8 | 0.00 | 0.00 | 0.00 | 63 | 1014.7 |
| 20260506115622 | 52 | 12 | 2.6 | 7.8 | 0.00 | 0.00 | 0.00 | 63 | 1014.7 |
| 20260506115131 | 52 | 59 | 3.5 | 7.8 | 0.00 | 0.00 | 0.00 | 63 | 1014.7 |
| 20260506114400 | 52 | 328 | 3.5 | 9.6 | 0.00 | 0.00 | 0.00 | 62 | 1014.7 |
| 20260506113900 | 52 | 64 | 2.6 | 9.6 | 0.00 | 0.00 | 0.00 | 62 | 1014.7 |
| 20260506113400 | 51 | 38 | 2.6 | 7.8 | 0.00 | 0.00 | 0.00 | 65 | 1014.7 |
| 20260506112900 | 50 | 2 | 2.6 | 7.8 | 0.00 | 0.00 | 0.00 | 66 | 1014.7 |
| 20260506112400 | 50 | 0 | 2.6 | 7.8 | 0.00 | 0.00 | 0.00 | 67 | 1014.8 |
| 20260506111900 | 50 | 215 | 2.6 | 7.8 | 0.00 | 0.00 | 0.00 | 66 | 1014.9 |
| 20260506111400 | 50 | 3 | 2.6 | 6.1 | 0.00 | 0.00 | 0.00 | 66 | 1015.0 |
| 20260506110859 | 50 | 46 | 1.7 | 6.1 | 0.00 | 0.00 | 0.00 | 66 | 1014.9 |
| 20260506110359 | 50 | 54 | 1.7 | 7.0 | 0.00 | 0.00 | 0.00 | 64 | 1014.8 |
| 20260506105858 | 50 | 0 | 1.7 | 7.0 | 0.00 | 0.00 | 0.00 | 65 | 1014.8 |
| 20260506105359 | 50 | 2 | 2.6 | 8.7 | 0.00 | 0.00 | 0.00 | 67 | 1014.8 |
| 20260506104855 | 50 | 29 | 2.6 | 8.7 | 0.00 | 0.00 | 0.00 | 66 | 1014.9 |
| 20260506104355 | 50 | 10 | 2.6 | 8.7 | 0.00 | 0.00 | 0.00 | 65 | 1014.9 |
| 20260506103856 | 50 | 333 | 2.6 | 8.7 | 0.00 | 0.00 | 0.00 | 66 | 1014.9 |
| 20260506103356 | 51 | 345 | 3.5 | 8.7 | 0.00 | 0.00 | 0.00 | 65 | 1014.9 |
| 20260506102856 | 52 | 329 | 3.5 | 7.8 | 0.00 | 0.00 | 0.00 | 64 | 1014.7 |
| 20260506102355 | 53 | 18 | 3.5 | 7.8 | 0.00 | 0.00 | 0.00 | 59 | 1014.7 |
| 20260506101855 | 53 | 353 | 2.6 | 7.8 | 0.00 | 0.00 | 0.00 | 57 | 1014.7 |
| 20260506101354 | 53 | 48 | 2.6 | 7.0 | 0.00 | 0.00 | 0.00 | 61 | 1014.6 |
| 20260506100854 | 52 | 320 | 2.6 | 7.8 | 0.00 | 0.00 | 0.00 | 63 | 1014.8 |
| 20260506100354 | 51 | 359 | 2.6 | 7.8 | 0.00 | 0.00 | 0.00 | 61 | 1014.8 |
| 20260506095850 | 51 | 57 | 2.6 | 7.0 | 0.00 | 0.00 | 0.00 | 62 | 1014.7 |
| 20260506095350 | 51 | 342 | 2.6 | 7.0 | 0.00 | 0.00 | 0.00 | 64 | 1014.8 |
| 20260506094349 | 51 | 351 | 3.5 | 7.8 | 0.00 | 0.00 | 0.00 | 63 | 1014.8 |
| 20260506093350 | 52 | 51 | 3.5 | 7.8 | 0.00 | 0.00 | 0.00 | 62 | 1014.7 |
| 20260506092349 | 51 | 13 | 3.5 | 7.8 | 0.00 | 0.00 | 0.00 | 63 | 1014.8 |
| 20260506091344 | 52 | 9 | 3.5 | 7.0 | 0.00 | 0.00 | 0.00 | 65 | 1014.8 |
| 20260506090844 | 51 | 92 | 2.6 | 7.0 | 0.00 | 0.00 | 0.00 | 65 | 1014.8 |
| 20260506090344 | 50 | 307 | 3.5 | 13.0 | 0.00 | 0.00 | 0.00 | 67 | 1014.8 |
| 20260506085845 | 49 | 16 | 2.6 | 13.0 | 0.00 | 0.00 | 0.00 | 68 | 1014.9 |
| 20260506085345 | 48 | 73 | 2.6 | 8.7 | 0.00 | 0.00 | 0.00 | 69 | 1014.8 |
| 20260506084845 | 47 | 335 | 2.6 | 7.0 | 0.00 | 0.00 | 0.00 | 69 | 1014.9 |
| 20260506084345 | 48 | 350 | 3.5 | 7.0 | 0.00 | 0.00 | 0.00 | 70 | 1014.9 |
| 20260506083845 | 49 | 9 | 2.6 | 7.0 | 0.00 | 0.00 | 0.00 | 68 | 1014.8 |
| 20260506083345 | 49 | 3 | 2.6 | 7.0 | 0.00 | 0.00 | 0.00 | 69 | 1014.8 |
| 20260506082845 | 49 | 358 | 2.6 | 7.0 | 0.00 | 0.00 | 0.00 | 71 | 1014.8 |
| 20260506082344 | 49 | 314 | 2.6 | 7.8 | 0.00 | 0.00 | 0.00 | 73 | 1014.8 |
| 20260506081840 | 49 | 53 | 3.5 | 9.6 | 0.00 | 0.00 | 0.00 | 72 | 1014.7 |
| 20260506081340 | 48 | 22 | 2.6 | 9.6 | 0.00 | 0.00 | 0.00 | 72 | 1014.8 |
| 20260506080839 | 48 | 28 | 2.6 | 11.3 | 0.00 | 0.00 | 0.00 | 74 | 1014.8 |
| 20260506080339 | 47 | 349 | 2.6 | 11.3 | 0.00 | 0.00 | 0.00 | 75 | 1014.8 |
| 20260506072832 | 45 | 12 | 2.6 | 5.2 | 0.00 | 0.00 | 0.00 | 79 | 1014.9 |
| 20260506071828 | 45 | 333 | 2.6 | 7.8 | 0.00 | 0.00 | 0.00 | 80 | 1014.8 |
| 20260506070828 | 45 | 4 | 2.6 | 8.7 | 0.00 | 0.00 | 0.00 | 80 | 1014.7 |
| 20260506070329 | 45 | 284 | 1.7 | 8.7 | 0.00 | 0.00 | 0.00 | 81 | 1014.6 |
| 20260506062324 | 41 | 347 | 1.7 | 5.2 | 0.00 | 0.00 | 0.00 | 88 | 1014.4 |
| 20260506061829 | 40 | 344 | 1.7 | 3.5 | 0.00 | 0.00 | 0.00 | 89 | 1014.4 |
| 20260506061327 | 40 | 330 | 1.7 | 3.5 | 0.00 | 0.00 | 0.00 | 89 | 1014.4 |
| 20260506060827 | 40 | 13 | 1.7 | 3.5 | 0.00 | 0.00 | 0.00 | 89 | 1014.4 |
| 20260506060323 | 40 | 350 | 1.7 | 3.5 | 0.00 | 0.00 | 0.00 | 89 | 1014.3 |
| 20260506044831 | 38 | 335 | 0.9 | 2.6 | 0.00 | 0.00 | 0.00 | 89 | 1014.2 |
| 20260506044111 | 39 | 328 | 0.9 | 2.6 | 0.00 | 0.00 | 0.00 | 89 | 1014.3 |
| 20260506043832 | 39 | 338 | 0.9 | 4.3 | 0.00 | 0.00 | 0.00 | 88 | 1014.3 |
| 20260506043333 | 39 | 344 | 0.9 | 4.3 | 0.00 | 0.00 | 0.00 | 88 | 1014.3 |
| 20260506042611 | 39 | 294 | 0.9 | 3.5 | 0.00 | 0.00 | 0.00 | 88 | 1014.3 |
| 20260506042111 | 39 | 343 | 0.9 | 3.5 | 0.00 | 0.00 | 0.00 | 88 | 1014.3 |
| 20260506041557 | 39 | 350 | 0.9 | 3.5 | 0.00 | 0.00 | 0.00 | 88 | 1014.3 |
| 20260506041057 | 39 | 358 | 0.9 | 2.6 | 0.00 | 0.00 | 0.00 | 88 | 1014.2 |
| 20260506040542 | 40 | 298 | 0.9 | 3.5 | 0.00 | 0.00 | 0.00 | 87 | 1014.2 |
| 20260506040043 | 40 | 0 | 0.9 | 3.5 | 0.00 | 0.00 | 0.00 | 87 | 1014.2 |
| 20260506035525 | 40 | 355 | 0.0 | 1.7 | 0.00 | 0.00 | 0.00 | 87 | 1014.2 |
| 20260506035026 | 40 | 0 | 0.9 | 2.6 | 0.00 | 0.00 | 0.00 | 87 | 1014.2 |
| 20260506034525 | 40 | 0 | 1.7 | 3.5 | 0.00 | 0.00 | 0.00 | 87 | 1014.3 |
| 20260506034027 | 41 | 338 | 1.7 | 3.5 | 0.00 | 0.00 | 0.00 | 86 | 1014.3 |
| 20260506033753 | 41 | 303 | 0.9 | 3.5 | 0.00 | 0.00 | 0.00 | 86 | 1014.3 |
| 20260506033026 | 41 | 5 | 1.7 | 4.3 | 0.00 | 0.00 | 0.00 | 86 | 1014.3 |
| 20260506032525 | 41 | 21 | 1.7 | 6.1 | 0.00 | 0.00 | 0.00 | 86 | 1014.3 |
| 20260506032022 | 42 | 352 | 1.7 | 6.1 | 0.00 | 0.00 | 0.00 | 86 | 1014.3 |
| 20260506031516 | 42 | 18 | 2.6 | 7.0 | 0.00 | 0.00 | 0.00 | 86 | 1014.4 |
| 20260506031016 | 42 | 332 | 2.6 | 7.0 | 0.00 | 0.00 | 0.00 | 86 | 1014.4 |
| 20260506030512 | 42 | 2 | 1.7 | 4.3 | 0.00 | 0.00 | 0.00 | 85 | 1014.4 |
| 20260506030013 | 42 | 338 | 1.7 | 2.6 | 0.00 | 0.00 | 0.00 | 85 | 1014.4 |
| 20260506025502 | 42 | 308 | 1.7 | 3.5 | 0.00 | 0.00 | 0.00 | 85 | 1014.4 |
| 20260506024943 | 43 | 359 | 1.7 | 5.2 | 0.00 | 0.00 | 0.00 | 85 | 1014.4 |
| 20260506024429 | 43 | 3 | 2.6 | 5.2 | 0.00 | 0.00 | 0.00 | 85 | 1014.4 |
| 20260506023927 | 43 | 328 | 1.7 | 4.3 | 0.00 | 0.00 | 0.00 | 85 | 1014.4 |
| 20260506023427 | 43 | 25 | 1.7 | 5.2 | 0.00 | 0.00 | 0.00 | 85 | 1014.4 |
| 20260506022927 | 43 | 339 | 1.7 | 5.2 | 0.00 | 0.00 | 0.00 | 85 | 1014.4 |
| 20260506022426 | 43 | 14 | 1.7 | 4.3 | 0.00 | 0.00 | 0.00 | 85 | 1014.4 |
| 20260506021927 | 43 | 358 | 1.7 | 4.3 | 0.00 | 0.00 | 0.00 | 85 | 1014.4 |
| 20260506021431 | 43 | 350 | 1.7 | 4.3 | 0.00 | 0.00 | 0.00 | 85 | 1014.4 |
| 20260506020927 | 43 | 316 | 1.7 | 4.3 | 0.00 | 0.00 | 0.00 | 85 | 1014.4 |
| 20260506020427 | 43 | 303 | 1.7 | 4.3 | 0.00 | 0.00 | 0.00 | 85 | 1014.5 |
| 20260506015927 | 43 | 32 | 1.7 | 5.2 | 0.00 | 0.00 | 0.00 | 85 | 1014.5 |
| 20260506015425 | 43 | 336 | 2.6 | 5.2 | 0.00 | 0.00 | 0.00 | 85 | 1014.5 |
| 20260506014926 | 43 | 357 | 1.7 | 5.2 | 0.00 | 0.00 | 0.00 | 84 | 1014.6 |
| 20260506014432 | 43 | 342 | 1.7 | 3.5 | 0.00 | 0.00 | 0.00 | 84 | 1014.6 |
| 20260506013928 | 43 | 35 | 1.7 | 4.3 | 0.00 | 0.00 | 0.00 | 84 | 1014.5 |
| 20260506013417 | 44 | 326 | 1.7 | 4.3 | 0.00 | 0.00 | 0.00 | 84 | 1014.6 |
| 20260506012917 | 44 | 328 | 1.7 | 7.0 | 0.00 | 0.00 | 0.00 | 84 | 1014.6 |
| 20260506012416 | 44 | 353 | 1.7 | 7.0 | 0.00 | 0.00 | 0.00 | 84 | 1014.6 |
| 20260506011914 | 44 | 314 | 1.7 | 5.2 | 0.00 | 0.00 | 0.00 | 84 | 1014.7 |
| 20260506011404 | 44 | 318 | 2.6 | 6.1 | 0.00 | 0.00 | 0.00 | 84 | 1014.7 |
| 20260506010906 | 44 | 347 | 2.6 | 6.1 | 0.00 | 0.00 | 0.00 | 84 | 1014.7 |
| 20260506010405 | 44 | 339 | 1.7 | 5.2 | 0.00 | 0.00 | 0.00 | 83 | 1014.7 |
| 20260506005905 | 44 | 0 | 1.7 | 5.2 | 0.00 | 0.00 | 0.00 | 83 | 1014.7 |
| 20260506005400 | 44 | 334 | 1.7 | 5.2 | 0.00 | 0.00 | 0.00 | 83 | 1014.7 |
| 20260506004859 | 44 | 348 | 2.6 | 7.8 | 0.00 | 0.00 | 0.00 | 83 | 1014.7 |
| 20260506004354 | 44 | 328 | 2.6 | 7.8 | 0.00 | 0.00 | 0.00 | 83 | 1014.8 |
| 20260506003848 | 44 | 357 | 1.7 | 6.1 | 0.00 | 0.00 | 0.00 | 82 | 1014.8 |
| 20260506003345 | 44 | 17 | 1.7 | 3.5 | 0.00 | 0.00 | 0.00 | 82 | 1014.9 |
| 20260506002844 | 44 | 339 | 1.7 | 9.6 | 0.00 | 0.00 | 0.00 | 82 | 1014.9 |
| 20260506002555 | 44 | 35 | 2.6 | 9.6 | 0.00 | 0.00 | 0.00 | 82 | 1014.9 |
| 20260506001831 | 44 | 332 | 1.7 | 7.0 | 0.00 | 0.00 | 0.00 | 81 | 1015.0 |
| 20260506000828 | 44 | 9 | 2.6 | 6.1 | 0.00 | 0.00 | 0.00 | 81 | 1014.9 |
| 20260505235829 | 45 | 344 | 2.6 | 4.3 | 0.00 | 0.00 | 0.00 | 80 | 1014.9 |
| 20260505234829 | 45 | 298 | 2.6 | 5.2 | 0.00 | 0.00 | 0.00 | 80 | 1015.0 |
| 20260505233833 | 45 | 358 | 1.7 | 4.3 | 0.00 | 0.00 | 0.00 | 79 | 1015.0 |
| 20260505233330 | 45 | 24 | 1.7 | 4.3 | 0.00 | 0.00 | 0.00 | 79 | 1015.0 |
| 20260505232830 | 45 | 352 | 1.7 | 5.2 | 0.00 | 0.00 | 0.00 | 78 | 1015.0 |
| 20260505232325 | 45 | 342 | 1.7 | 5.2 | 0.00 | 0.00 | 0.00 | 78 | 1015.1 |
| 20260505231824 | 45 | 359 | 2.6 | 6.1 | 0.00 | 0.00 | 0.00 | 78 | 1015.1 |
| 20260505231324 | 45 | 352 | 2.6 | 6.1 | 0.00 | 0.00 | 0.00 | 77 | 1015.1 |
| 20260505230826 | 45 | 343 | 1.7 | 7.8 | 0.00 | 0.00 | 0.00 | 77 | 1015.2 |
| 20260505230325 | 45 | 2 | 1.7 | 7.8 | 0.00 | 0.00 | 0.00 | 77 | 1015.2 |
| 20260505225825 | 46 | 15 | 1.7 | 7.0 | 0.00 | 0.00 | 0.00 | 77 | 1015.2 |
| 20260505225324 | 46 | 27 | 1.7 | 5.2 | 0.00 | 0.00 | 0.00 | 77 | 1015.2 |
| 20260505224823 | 46 | 332 | 1.7 | 5.2 | 0.00 | 0.00 | 0.00 | 77 | 1015.1 |
| 20260505224322 | 46 | 354 | 1.7 | 5.2 | 0.00 | 0.00 | 0.00 | 77 | 1015.2 |
| 20260505224044 | 46 | 345 | 2.6 | 6.1 | 0.00 | 0.00 | 0.00 | 77 | 1015.2 |
| 20260505223544 | 46 | 57 | 2.6 | 7.8 | 0.00 | 0.00 | 0.00 | 76 | 1015.2 |
| 20260505223043 | 46 | 314 | 2.6 | 7.8 | 0.00 | 0.00 | 0.00 | 76 | 1015.1 |
| 20260505222317 | 46 | 106 | 2.6 | 6.1 | 0.00 | 0.00 | 0.00 | 76 | 1015.2 |
| 20260505221818 | 46 | 62 | 2.6 | 6.1 | 0.00 | 0.00 | 0.00 | 76 | 1015.2 |
| 20260505221317 | 46 | 0 | 3.5 | 7.0 | 0.00 | 0.00 | 0.00 | 76 | 1015.1 |
| 20260505220817 | 46 | 67 | 3.5 | 7.0 | 0.00 | 0.00 | 0.00 | 76 | 1015.1 |
| 20260505220317 | 46 | 47 | 2.6 | 7.0 | 0.00 | 0.00 | 0.00 | 76 | 1015.2 |
| 20260505215814 | 46 | 350 | 2.6 | 7.0 | 0.00 | 0.00 | 0.00 | 76 | 1015.2 |
| 20260505215312 | 46 | 6 | 2.6 | 7.8 | 0.00 | 0.00 | 0.00 | 77 | 1015.3 |
| 20260505214812 | 47 | 59 | 2.6 | 7.8 | 0.00 | 0.00 | 0.00 | 77 | 1015.3 |
| 20260505214311 | 47 | 57 | 1.7 | 6.1 | 0.00 | 0.00 | 0.00 | 78 | 1015.3 |
| 20260505213808 | 47 | 14 | 1.7 | 5.2 | 0.00 | 0.00 | 0.00 | 78 | 1015.3 |
| 20260505213308 | 47 | 14 | 1.7 | 6.1 | 0.00 | 0.00 | 0.00 | 78 | 1015.3 |
| 20260505212807 | 47 | 347 | 2.6 | 6.1 | 0.00 | 0.00 | 0.00 | 78 | 1015.3 |
| 20260505212308 | 47 | 96 | 2.6 | 7.0 | 0.00 | 0.00 | 0.00 | 78 | 1015.3 |